Temp
79 77 76 75 76 76 76 76 76 76 76 77 78 76 74 72 69 67 71 69 77 76 76 75 75 75 75 75 75 75 75 75 75
77 76 75 75 75 76 76 76 76 75 75 76 77 75 72 69 65 65 66 70 76 76 76 75 75 75 75 75 75 74 74 74 74
76 75 75 75 76 76 76 76 75 75 75 76 75 74 72 69 65 65 66 74 75 75 75 75 75 75 74 74 74 74 74 74 74
77 76 75 75 75 75 75 75 75 75 75 74 73 72 70 66 67 70 66 74 75 75 74 74 74 74 74 74 73 74 73 73 73
76 74 73 74 74 74 74 74 74 74 73 73 72 70 69 65 66 65 67 74 75 74 74 74 74 73 73 73 73 73 73 73 73
70 73 71 72 73 73 74 73 72 71 71 72 71 69 66 65 65 65 72 74 74 74 73 73 73 73 72 72 72 72 72 72 72
69 69 70 71 71 72 73 72 71 69 66 66 68 66 65 65 65 66 72 74 74 73 72 72 72 72 72 72 71 71 71 71 71
65 65 65 66 66 66 67 67 66 65 65 66 65 67 64 64 65 68 72 74 74 73 72 72 72 71 71 71 71 70 70 70 70
64 63 64 64 64 64 63 63 64 65 66 65 66 67 66 63 64 66 70 73 73 73 72 72 71 71 71 70 70 70 69 69 69
66 64 63 63 63 63 63 63 65 65 67 67 68 69 66 65 64 63 67 70 72 73 72 72 72 71 71 70 69 69 69 68 68
68 67 66 65 65 65 65 64 65 66 66 67 68 68 67 66 64 63 64 68 71 73 73 73 72 72 71 70 69 69 68 68 68
69 68 67 68 67 67 66 66 65 65 66 65 66 66 66 67 65 64 62 65 67 70 73 73 72 72 71 71 70 69 69 68 68
69 72 72 68 68 67 66 65 64 63 63 63 64 64 65 65 65 64 63 63 65 67 70 72 72 72 72 72 71 70 69 68 68
69 67 67 68 66 65 66 64 64 62 61 63 62 62 62 64 67 65 64 63 64 63 66 67 69 70 72 73 73 72 70 69 68
68 67 67 67 65 64 64 63 62 62 62 66 65 61 62 62 62 64 67 65 64 63 63 63 63 66 70 72 73 73 72 69 69
68 67 66 66 65 64 65 63 62 61 61 60 59 60 61 61 63 64 63 65 65 63 63 61 61 62 66 69 71 73 73 71 70
70 68 67 67 66 66 65 64 61 62 62 60 58 57 60 60 62 62 63 63 63 64 64 62 61 60 60 61 67 69 71 72 71
68 68 67 66 66 65 64 64 63 60 61 62 59 53 54 56 59 60 61 62 61 61 62 61 59 58 59 61 61 63 65 68 70
68 67 67 67 66 65 65 66 64 61 60 60 63 60 59 55 55 59 58 59 59 57 57 56 56 56 55 58 58 60 61 64 67
65 66 66 65 64 65 65 64 63 63 61 61 59 58 57 58 56 53 56 56 54 54 55 56 54 53 55 54 55 58 60 63 65
MSLP
1018.85 1019.48 1019.89 1020.07 1020.38 1020.55 1020.76 1020.87 1021.15 1021.25 1021.28 1021.34 1021.07 1021.53 1021.94 1022.04 1022.22 1022.40 1022.46 1022.39 1022.36 1022.41 1022.52 1022.54 1022.57 1022.62 1022.69 1022.81 1022.89 1022.82 1022.78 1022.71 1022.64
1019.50 1019.84 1020.12 1020.41 1020.50 1020.73 1021.01 1021.14 1021.43 1021.52 1021.63 1021.65 1021.70 1021.97 1022.20 1022.48 1022.78 1022.92 1022.86 1022.72 1022.71 1022.79 1022.91 1022.95 1023.06 1023.06 1023.10 1023.21 1023.27 1023.30 1023.21 1023.21 1023.17
1019.76 1020.06 1020.33 1020.47 1020.65 1020.93 1021.23 1021.45 1021.69 1021.76 1021.90 1021.89 1021.95 1022.24 1022.53 1022.87 1023.18 1023.28 1023.19 1023.03 1023.04 1023.21 1023.26 1023.25 1023.39 1023.47 1023.52 1023.54 1023.62 1023.67 1023.70 1023.58 1023.59
1019.96 1020.23 1020.52 1020.67 1021.00 1021.27 1021.56 1021.76 1021.98 1022.06 1022.14 1022.25 1022.41 1022.65 1022.83 1023.19 1023.37 1023.45 1023.49 1023.34 1023.32 1023.55 1023.59 1023.54 1023.67 1023.74 1023.84 1023.90 1023.99 1024.03 1024.03 1024.00 1023.98
1020.15 1020.40 1020.74 1021.04 1021.30 1021.53 1021.81 1022.05 1022.23 1022.34 1022.35 1022.46 1022.57 1023.04 1023.21 1023.39 1023.60 1023.78 1023.72 1023.66 1023.69 1023.87 1023.90 1023.92 1023.98 1024.05 1024.12 1024.22 1024.31 1024.41 1024.38 1024.34 1024.24
1020.36 1020.62 1021.01 1021.26 1021.59 1021.86 1021.97 1022.27 1022.46 1022.54 1022.55 1022.66 1022.84 1023.17 1023.44 1023.55 1023.82 1023.99 1023.92 1023.97 1024.10 1024.27 1024.31 1024.33 1024.40 1024.45 1024.49 1024.55 1024.60 1024.73 1024.76 1024.75 1024.75
1020.63 1020.87 1021.28 1021.47 1021.86 1022.12 1022.21 1022.46 1022.63 1022.73 1022.78 1022.87 1023.05 1023.36 1023.54 1023.64 1023.95 1024.13 1024.17 1024.19 1024.37 1024.55 1024.67 1024.64 1024.70 1024.74 1024.76 1024.76 1024.88 1025.01 1025.05 1025.06 1025.16
1021.07 1021.20 1021.56 1021.86 1022.07 1022.32 1022.48 1022.60 1022.79 1022.93 1022.90 1022.96 1023.04 1023.26 1023.62 1023.68 1023.87 1024.05 1024.26 1024.39 1024.56 1024.66 1024.81 1024.79 1024.89 1024.94 1024.98 1025.05 1025.18 1025.31 1025.35 1025.39 1025.40
1021.27 1021.49 1021.68 1022.01 1022.24 1022.42 1022.58 1022.77 1022.84 1022.97 1022.91 1023.12 1023.07 1023.26 1023.51 1023.76 1023.86 1023.99 1024.17 1024.34 1024.52 1024.69 1024.78 1024.87 1024.95 1025.05 1025.19 1025.29 1025.43 1025.56 1025.60 1025.69 1025.76
1020.88 1021.41 1021.76 1022.00 1022.23 1022.37 1022.53 1022.60 1022.77 1022.90 1022.85 1022.98 1023.01 1022.97 1023.36 1023.65 1023.80 1023.95 1024.09 1024.24 1024.43 1024.64 1024.76 1024.87 1024.98 1025.12 1025.19 1025.36 1025.51 1025.65 1025.73 1025.76 1025.83
1020.33 1020.94 1021.42 1021.76 1022.04 1022.17 1022.30 1022.45 1022.60 1022.50 1022.62 1022.85 1022.85 1022.91 1023.09 1023.52 1023.76 1023.95 1024.10 1024.20 1024.35 1024.54 1024.71 1024.82 1024.88 1025.02 1025.11 1025.30 1025.46 1025.61 1025.66 1025.79 1025.81
1020.01 1020.55 1021.08 1021.23 1021.57 1021.72 1022.04 1022.27 1022.44 1022.56 1022.72 1022.85 1022.90 1022.91 1022.97 1023.12 1023.47 1023.70 1023.88 1024.06 1024.25 1024.40 1024.43 1024.59 1024.69 1024.80 1025.01 1025.18 1025.40 1025.53 1025.58 1025.70 1025.82
1019.76 1020.08 1020.43 1020.85 1021.16 1021.47 1021.83 1022.16 1022.58 1022.74 1022.88 1022.99 1023.06 1023.01 1023.04 1023.06 1023.24 1023.47 1023.63 1023.88 1024.08 1024.21 1024.24 1024.32 1024.50 1024.64 1024.80 1024.89 1025.10 1025.22 1025.39 1025.61 1025.75
1019.38 1019.88 1020.24 1020.52 1021.03 1021.41 1021.72 1022.15 1022.35 1022.77 1023.02 1023.11 1023.14 1023.14 1023.17 1023.06 1023.06 1023.26 1023.45 1023.57 1023.66 1023.96 1024.08 1024.17 1024.27 1024.38 1024.50 1024.59 1024.60 1024.86 1025.24 1025.51 1025.74
1019.06 1019.57 1020.06 1020.46 1020.99 1021.43 1021.72 1022.04 1022.37 1022.58 1022.77 1022.94 1023.04 1023.16 1023.06 1023.05 1023.06 1022.97 1022.96 1023.17 1023.41 1023.64 1023.80 1024.00 1024.18 1024.20 1024.23 1024.26 1024.25 1024.26 1024.52 1024.99 1025.16
1018.96 1019.38 1019.77 1020.17 1020.65 1021.11 1021.52 1021.92 1022.33 1022.59 1022.68 1023.09 1023.25 1023.19 1022.93 1022.95 1022.92 1022.77 1022.84 1022.87 1022.99 1023.26 1023.46 1023.64 1023.83 1023.99 1024.00 1024.02 1024.06 1024.02 1024.04 1024.50 1024.84
1018.74 1019.23 1019.71 1019.97 1020.42 1020.77 1021.21 1021.60 1022.19 1022.40 1022.45 1022.92 1023.28 1023.43 1023.03 1022.68 1022.46 1022.60 1022.68 1022.73 1022.75 1022.97 1023.12 1023.40 1023.51 1023.66 1023.93 1023.86 1023.96 1023.94 1023.92 1023.92 1023.97
1018.59 1018.89 1019.31 1019.72 1019.95 1020.29 1020.71 1021.18 1021.68 1022.27 1022.42 1022.34 1022.60 1023.27 1023.25 1023.01 1022.44 1022.35 1022.44 1022.70 1022.82 1022.84 1023.05 1023.38 1023.65 1023.83 1023.89 1023.74 1023.72 1023.86 1024.04 1023.98 1023.84
1018.83 1019.01 1018.97 1019.43 1019.81 1019.73 1019.94 1020.60 1021.15 1021.69 1022.22 1022.40 1022.25 1022.35 1022.69 1022.93 1023.14 1022.71 1022.56 1022.79 1023.13 1023.27 1023.58 1023.83 1023.94 1024.00 1024.06 1023.98 1024.04 1024.01 1024.06 1024.01 1023.84
1019.11 1018.80 1019.06 1019.67 1019.58 1019.70 1019.73 1020.12 1020.71 1021.18 1021.67 1021.86 1021.69 1022.22 1022.70 1022.57 1023.00 1023.13 1023.19 1023.35 1023.48 1023.80 1023.84 1023.92 1024.09 1024.23 1024.19 1024.23 1024.24 1024.04 1024.08 1023.91 1023.66
Wind_Speed
19 18 17 17 17 17 17 15 14 14 13 13 15 22 17 14 9 7 8 6 16 17 16 16 17 17 17 17 17 18 18 18 18
19 17 16 15 17 17 16 15 14 13 12 13 18 18 16 10 7 6 6 7 16 16 16 16 16 17 17 17 17 17 17 18 17
18 16 14 16 17 17 16 15 13 12 11 12 13 15 15 10 7 6 5 12 15 15 15 16 16 16 16 16 16 16 16 17 17
17 14 16 17 16 15 16 16 12 10 9 10 12 14 15 7 4 6 3 12 15 14 14 15 15 15 15 15 15 15 15 16 16
18 13 16 15 14 15 15 15 12 8 7 7 10 11 9 7 6 4 4 12 14 13 13 14 14 14 14 14 14 14 14 14 15
8 12 14 14 12 12 14 13 10 7 5 4 4 8 3 6 4 3 9 11 12 12 12 12 13 13 13 13 13 12 13 13 14
6 9 12 12 11 10 11 11 9 5 2 0 3 3 5 5 4 3 8 10 11 11 11 11 11 11 11 12 11 11 12 12 12
4 3 4 4 6 3 4 5 3 3 2 2 1 3 3 4 3 5 8 9 9 10 9 10 10 10 10 10 10 10 10 11 11
4 3 4 4 3 5 4 3 4 5 5 4 2 5 5 3 3 5 9 9 9 8 9 9 9 9 9 9 9 8 9 9 9
7 5 4 4 4 4 4 4 4 5 5 5 5 5 6 6 3 3 9 9 9 9 9 9 9 8 8 8 8 7 7 7 7
6 7 6 5 5 4 4 4 4 3 1 3 4 4 4 6 6 4 4 9 10 10 9 9 9 8 8 8 7 7 6 6 7
7 6 6 6 5 7 5 4 3 3 2 2 2 3 4 4 6 5 4 5 9 10 11 10 10 10 9 9 8 7 7 7 6
5 6 7 6 5 5 4 3 3 2 2 2 2 2 3 4 5 5 5 4 4 8 11 11 12 11 11 10 11 12 11 9 7
7 5 4 5 4 4 4 2 3 2 1 3 2 2 3 4 3 4 6 6 5 5 9 10 10 11 12 12 12 12 11 10 9
6 5 5 5 4 4 3 3 1 3 4 3 3 3 3 3 3 5 4 5 6 6 6 5 5 9 11 14 13 13 14 15 15
6 4 5 5 6 6 5 3 4 2 2 3 2 3 5 5 5 4 4 5 5 6 5 4 4 4 12 13 14 14 14 13 17
7 6 5 6 4 6 6 4 3 3 4 3 2 2 3 2 5 4 4 6 3 5 5 5 6 4 3 5 11 12 14 15 12
1 4 5 6 5 5 5 5 6 4 3 4 4 2 3 2 2 4 4 5 3 3 2 4 5 4 3 2 1 3 7 10 13
3 5 3 3 4 6 6 5 4 4 4 1 4 2 3 2 3 2 2 2 2 3 3 4 4 4 3 4 6 4 6 9 11
4 5 5 2 4 2 4 5 5 3 3 3 3 1 1 2 3 3 2 2 3 3 3 3 3 4 3 3 3 4 6 9 11
Wind_Direction
117 109 114 114 117 116 118 116 110 99 83 65 69 92 91 81 71 65 73 73 84 83 81 81 80 81 80 78 78 79 76 76 74
118 123 119 126 123 121 117 116 109 96 81 69 86 101 94 87 72 67 67 79 86 85 85 83 84 84 82 83 81 79 78 76 76
128 117 120 116 114 116 119 116 109 93 78 68 73 103 95 90 83 72 69 88 88 87 88 88 85 84 86 85 83 81 79 80 77
122 128 111 109 112 117 114 116 108 95 80 66 67 95 109 104 103 89 69 89 90 91 91 91 90 88 86 85 83 83 81 79 77
130 121 111 110 106 115 117 116 111 101 84 71 59 66 92 103 95 85 87 94 94 94 94 94 94 91 90 88 86 82 81 81 79
112 130 108 111 109 113 120 123 120 114 99 68 47 67 110 105 99 94 98 98 98 98 97 97 96 94 94 91 89 86 84 80 77
119 123 119 115 118 120 129 136 140 130 131 353 28 84 136 110 117 111 111 107 106 106 105 104 103 102 102 100 95 92 89 85 82
114 110 111 118 124 128 130 142 156 168 204 200 252 128 157 129 132 140 130 121 117 117 117 115 113 112 110 104 101 98 95 92 89
138 135 143 150 161 163 169 173 179 204 243 237 179 140 138 138 140 155 151 144 138 137 135 131 127 122 116 111 109 105 101 96 91
155 158 165 176 172 182 191 195 194 199 185 188 167 134 130 152 158 157 168 163 161 160 155 149 142 137 132 127 123 118 112 109 104
156 162 180 184 183 196 196 191 200 193 157 184 157 154 135 152 163 166 184 182 179 179 175 169 160 158 153 147 144 141 135 133 127
166 170 179 197 184 190 196 177 165 155 160 167 198 180 187 185 165 176 184 189 197 196 191 189 184 179 174 167 166 171 174 168 162
150 176 176 177 166 161 166 151 137 153 181 197 220 212 189 204 189 178 181 189 193 210 215 202 199 196 196 193 188 197 193 188 188
146 142 172 154 149 139 158 147 145 163 191 231 259 251 233 202 196 206 193 199 188 197 218 216 210 205 210 221 218 213 205 201 200
147 147 165 155 147 149 141 144 148 162 188 205 201 236 241 244 235 232 220 196 194 199 200 204 219 218 218 227 236 232 215 207 206
160 165 166 162 159 172 173 153 174 203 133 90 341 288 246 239 233 228 232 237 212 192 198 191 197 220 224 228 236 245 252 232 221
166 164 179 169 159 169 176 162 153 211 189 153 116 288 321 269 228 223 227 233 219 208 201 190 202 217 244 230 234 244 253 262 256
139 171 173 185 177 175 176 173 174 187 224 208 147 135 226 304 335 228 215 239 203 202 183 115 101 102 94 70 315 281 283 274 275
186 222 232 215 209 184 175 181 173 149 195 235 232 180 155 160 327 348 66 71 109 109 78 97 93 77 50 36 29 355 307 288 283
303 210 174 188 237 239 191 176 195 201 173 197 163 187 210 179 166 243 279 30 55 84 114 97 87 69 83 69 7 344 308 287 271